DW7854 Weather Reports


Display with metric or nautical units.
time (UTC)temp
F
wind
direction
speed
MPH
gust
MPH
rain 1hr
in
rain 24hr
in
rain mn
in
humidity
%
barometer
mb
20260905014509 88 152 0.0 2.0 0.00 0.00 0.00 66 1010.9
20260905014105 88 164 2.0 3.0 0.00 0.00 0.00 65 1011.2
20260905013205 89 167 3.0 7.0 0.00 0.00 0.00 65 1011.2
20260905013102 89 175 2.0 7.0 0.00 0.00 0.00 65 1010.9
20260905012306 90 156 2.0 7.0 0.00 0.00 0.00 63 1011.2
20260905011504 90 138 2.0 6.0 0.00 0.00 0.00 62 1010.7
20260905011405 90 155 3.0 6.0 0.00 0.00 0.00 62 1011.0
20260905010505 91 147 4.0 7.0 0.00 0.00 0.00 60 1011.0
20260905010003 91 161 4.0 7.0 0.00 0.00 0.00 57 1010.8
20260905005605 93 140 0.0 4.0 0.00 0.00 0.00 55 1010.9
20260905004637 93 141 0.0 0.0 0.00 0.00 0.00 54 1010.5
20260905003805 94 140 0.0 1.0 0.00 0.00 0.00 53 1010.8
20260905003005 94 141 0.0 2.0 0.00 0.00 0.00 53 1010.5
20260905002905 94 140 1.0 1.0 0.00 0.00 0.00 52 1010.8
20260905002005 95 126 0.0 2.0 0.00 0.00 0.00 51 1010.7
20260905001502 94 360 0.0 2.0 0.00 0.00 0.00 51 1010.4
20260905001105 95 123 1.0 2.0 0.00 0.00 0.00 50 1010.8
20260905000205 95 141 1.0 3.0 0.00 0.00 0.00 50 1010.7
20260905000003 95 68 0.0 3.0 0.00 0.00 0.00 50 1010.4
20260904235306 95 150 2.0 3.0 0.00 0.00 0.00 48 1010.5
20260904234602 95 150 2.0 4.0 0.00 0.00 0.00 49 1010.2
20260904233505 96 166 2.0 4.0 0.00 0.00 0.00 48 1010.6
20260904233103 96 186 1.0 4.0 0.00 0.00 0.00 47 1010.2
20260904232605 97 169 2.0 4.0 0.00 0.00 0.00 46 1010.6
20260904231705 98 170 2.0 5.0 0.00 0.00 0.00 46 1010.6
20260904231608 97 175 1.0 5.0 0.00 0.00 0.00 46 1010.2
20260904230805 99 177 2.0 4.0 0.00 0.00 0.00 46 1010.5
20260904230128 98 186 1.0 4.0 0.00 0.00 0.00 46 1010.1
20260904225905 99 165 2.0 4.0 0.00 0.00 0.00 45 1010.5
20260904225005 99 189 3.0 5.0 0.00 0.00 0.00 45 1010.5
20260904224503 98 182 2.0 6.0 0.00 0.00 0.00 45 1010.2
20260904224105 99 179 4.0 7.0 0.00 0.00 0.00 45 1010.7
20260904223003 99 138 2.0 7.0 0.00 0.00 0.00 45 1010.4
20260904222306 99 166 3.0 6.0 0.00 0.00 0.00 45 1010.7
20260904221504 99 214 3.0 8.0 0.00 0.00 0.00 45 1010.4
20260904220110 99 178 5.0 7.0 0.00 0.00 0.00 44 1010.4
20260904215605 99 146 3.0 5.0 0.00 0.00 0.00 44 1010.8
20260904214705 100 168 3.0 6.0 0.00 0.00 0.00 41 1010.8
20260904214512 100 126 2.0 6.0 0.00 0.00 0.00 42 1010.5
20260904213805 100 176 5.0 8.0 0.00 0.00 0.00 43 1010.9
20260904213107 100 193 6.0 9.0 0.00 0.00 0.00 42 1010.7
20260904212905 101 164 3.0 7.0 0.00 0.00 0.00 43 1011.0
20260904212005 101 149 2.0 5.0 0.00 0.00 0.00 41 1011.1
20260904211510 100 120 2.0 7.0 0.00 0.00 0.00 42 1010.8
20260904211105 100 167 4.0 9.0 0.00 0.00 0.00 40 1011.2
20260904210205 100 110 2.0 7.0 0.00 0.00 0.00 42 1011.3
20260904210011 100 169 0.0 9.0 0.00 0.00 0.00 42 1011.0
20260904205306 101 168 3.0 9.0 0.00 0.00 0.00 43 1011.4
20260904204512 99 157 1.0 7.0 0.00 0.00 0.00 43 1011.2
20260904204405 100 153 3.0 6.0 0.00 0.00 0.00 43 1011.5
20260904203505 100 148 3.0 6.0 0.00 0.00 0.00 43 1011.6
20260904203007 99 154 3.0 11.0 0.00 0.00 0.00 44 1011.4
20260904202605 99 181 4.0 11.0 0.00 0.00 0.00 43 1011.8
20260904201609 98 216 2.0 8.0 0.00 0.00 0.00 46 1011.6
20260904200009 98 227 4.0 10.0 0.00 0.00 0.00 44 1011.9
20260904195905 99 159 4.0 10.0 0.00 0.00 0.00 46 1012.2
20260904195005 99 162 3.0 8.0 0.00 0.00 0.00 46 1012.3
20260904194504 99 208 3.0 8.0 0.00 0.00 0.00 46 1012.1
20260904194105 99 164 3.0 10.0 0.00 0.00 0.00 47 1012.4
20260904193205 99 174 5.0 10.0 0.00 0.00 0.00 46 1012.4
20260904193004 99 193 3.0 10.0 0.00 0.00 0.00 47 1012.2
20260904192306 99 157 4.0 10.0 0.00 0.00 0.00 47 1012.6
20260904191509 98 148 4.0 9.0 0.00 0.00 0.00 47 1012.4
20260904191405 99 140 4.0 9.0 0.00 0.00 0.00 47 1012.7
20260904190505 98 150 5.0 11.0 0.00 0.00 0.00 47 1012.7
20260904190110 98 225 3.0 13.0 0.00 0.00 0.00 49 1012.5
20260904185605 98 164 7.0 13.0 0.00 0.00 0.00 48 1012.8
20260904184705 98 176 4.0 13.0 0.00 0.00 0.00 50 1012.8
20260904184606 98 173 6.0 11.0 0.00 0.00 0.00 49 1012.5
20260904183805 98 169 4.0 10.0 0.00 0.00 0.00 48 1013.0
20260904183116 97 136 1.0 9.0 0.00 0.00 0.00 49 1012.8
20260904182005 97 151 5.0 10.0 0.00 0.00 0.00 50 1013.3
20260904181604 97 132 6.0 10.0 0.00 0.00 0.00 51 1013.1
20260904181105 97 142 4.0 9.0 0.00 0.00 0.00 50 1013.5
20260904180005 97 184 5.0 9.0 0.00 0.00 0.00 49 1013.3
20260904174511 96 144 2.0 12.0 0.00 0.00 0.00 52 1013.4
20260904173505 95 140 4.0 8.0 0.00 0.00 0.00 54 1013.9
20260904173107 95 87 5.0 9.0 0.00 0.00 0.00 52 1013.7
20260904172605 94 112 2.0 5.0 0.00 0.00 0.00 56 1014.0
20260904171705 95 188 4.0 9.0 0.00 0.00 0.00 53 1014.2
20260904171503 95 167 5.0 9.0 0.00 0.00 0.00 55 1013.9
20260904170805 95 188 4.0 7.0 0.00 0.00 0.00 55 1014.2
20260904170005 93 207 3.0 7.0 0.00 0.00 0.00 57 1014.0
20260904165905 94 219 2.0 7.0 0.00 0.00 0.00 58 1014.3
20260904165005 94 161 4.0 9.0 0.00 0.00 0.00 57 1014.5
20260904164506 94 163 3.0 9.0 0.00 0.00 0.00 58 1014.3
20260904163205 93 141 4.0 6.0 0.00 0.00 0.00 59 1014.5
20260904163109 93 128 3.0 6.0 0.00 0.00 0.00 59 1014.2
20260904162306 93 166 3.0 8.0 0.00 0.00 0.00 59 1014.5
20260904161505 91 103 2.0 6.0 0.00 0.00 0.00 61 1014.2
20260904161405 92 247 1.0 6.0 0.00 0.00 0.00 62 1014.4
20260904160505 91 205 2.0 5.0 0.00 0.00 0.00 63 1014.5
20260904160005 91 254 2.0 6.0 0.00 0.00 0.00 63 1014.2
20260904154705 90 124 2.0 4.0 0.00 0.00 0.00 65 1014.5
20260904154603 90 183 2.0 4.0 0.00 0.00 0.00 65 1014.3
20260904153805 91 165 3.0 6.0 0.00 0.00 0.00 65 1014.6
20260904153010 90 340 0.0 8.0 0.00 0.00 0.00 66 1014.4
20260904152005 90 156 3.0 7.0 0.00 0.00 0.00 67 1014.6
20260904151505 89 157 3.0 7.0 0.00 0.00 0.00 66 1014.4
20260904151105 89 154 2.0 6.0 0.00 0.00 0.00 67 1014.7
20260904150022 88 189 3.0 6.0 0.00 0.00 0.00 70 1014.4
20260904145306 87 170 2.0 5.0 0.00 0.00 0.00 72 1014.7
20260904144605 86 251 1.0 4.0 0.00 0.00 0.00 74 1014.4
20260904144405 86 283 2.0 5.0 0.00 0.00 0.00 74 1014.7
20260904143505 85 315 2.0 5.0 0.00 0.00 0.00 75 1014.7
20260904143006 84 351 2.0 4.0 0.00 0.00 0.00 75 1014.4
20260904141705 84 120 1.0 3.0 0.00 0.00 0.00 79 1014.6
20260904141604 83 164 1.0 3.0 0.00 0.00 0.00 79 1014.3
20260904140805 83 331 1.0 3.0 0.00 0.00 0.00 80 1014.5
20260904140109 81 282 0.0 3.0 0.00 0.00 0.00 82 1014.3
20260904135905 82 320 1.0 3.0 0.00 0.00 0.00 82 1014.5
20260904134606 80 199 0.0 3.0 0.00 0.00 0.00 85 1014.2
20260904134105 80 174 1.0 3.0 0.00 0.00 0.00 88 1014.5
20260904133205 78 158 1.0 3.0 0.00 0.00 0.00 90 1014.4
20260904133004 78 171 1.0 3.0 0.00 0.00 0.00 91 1014.1
20260904132306 77 0 0.0 0.0 0.00 0.00 0.00 93 1014.4
20260904131606 76 27 0.0 1.0 0.00 0.00 0.00 93 1014.0
20260904131405 76 27 0.0 1.0 0.00 0.00 0.00 93 1014.3
20260904130005 74 27 0.0 1.0 0.00 0.00 0.00 94 1013.9
20260904125604 74 0 0.0 0.0 0.00 0.00 0.00 94 1014.1
20260904124705 74 0 0.0 0.0 0.00 0.00 0.00 94 1014.0
20260904124506 73 27 0.0 0.0 0.00 0.00 0.00 94 1013.8
20260904123805 74 0 0.0 0.0 0.00 0.00 0.00 94 1014.0
20260904123106 73 27 0.0 1.0 0.00 0.00 0.00 93 1013.6
20260904122905 74 27 0.0 1.0 0.00 0.00 0.00 93 1013.8
20260904122005 74 0 0.0 0.0 0.00 0.00 0.00 93 1013.8
20260904121508 73 27 0.0 1.0 0.00 0.00 0.00 93 1013.5
20260904120009 73 27 0.0 0.0 0.00 0.00 0.00 93 1013.3
20260904115306 74 27 0.0 1.0 0.00 0.00 0.00 93 1013.6
20260904114504 73 27 0.0 1.0 0.00 0.00 0.00 93 1013.3
20260904114404 74 25 0.0 1.0 0.00 0.00 0.00 93 1013.6
20260904113505 74 0 0.0 0.0 0.00 0.00 0.00 92 1013.7
20260904113005 74 156 0.0 0.0 0.00 0.00 0.00 92 1013.4
20260904112605 74 0 0.0 0.0 0.00 0.00 0.00 92 1013.7
20260904111705 74 0 0.0 0.0 0.00 0.00 0.00 92 1013.6
20260904110804 74 0 0.0 0.0 0.00 0.00 0.00 92 1013.6
20260904110104 74 156 0.0 0.0 0.00 0.00 0.00 92 1013.3
20260904105905 74 0 0.0 0.0 0.00 0.00 0.00 92 1013.6
20260904105005 74 0 0.0 0.0 0.00 0.00 0.00 92 1013.6
20260904104606 74 156 0.0 0.0 0.00 0.00 0.00 92 1013.4
20260904104104 74 0 0.0 0.0 0.00 0.00 0.00 92 1013.7
20260904103205 74 0 0.0 0.0 0.00 0.00 0.00 92 1013.5
20260904103005 74 156 0.0 0.0 0.00 0.00 0.00 92 1013.2
20260904102306 74 0 0.0 0.0 0.00 0.00 0.00 92 1013.4
20260904101505 74 156 0.0 0.0 0.00 0.00 0.00 92 1013.1
20260904101404 74 0 0.0 0.0 0.00 0.00 0.00 92 1013.4
20260904100504 74 0 0.0 0.0 0.00 0.00 0.00 91 1013.4
20260904100104 74 156 0.0 0.0 0.00 0.00 0.00 91 1013.2
20260904095605 75 0 0.0 0.0 0.00 0.00 0.00 91 1013.4
20260904094704 75 0 0.0 0.0 0.00 0.00 0.00 91 1013.3
20260904094503 74 156 0.0 0.0 0.00 0.00 0.00 91 1012.9
20260904093804 75 0 0.0 0.0 0.00 0.00 0.00 91 1013.0
20260904093110 74 156 0.0 0.0 0.00 0.00 0.00 91 1012.7
20260904092905 75 0 0.0 0.0 0.00 0.00 0.00 90 1013.0
20260904092004 75 0 0.0 0.0 0.00 0.00 0.00 91 1012.8
20260904091505 74 156 0.0 0.0 0.00 0.00 0.00 90 1012.6
20260904090005 75 156 0.0 0.0 0.00 0.00 0.00 90 1012.4
20260904085306 75 0 0.0 0.0 0.00 0.00 0.00 90 1012.6
20260904084604 75 156 0.0 0.0 0.00 0.00 0.00 90 1012.4
20260904083505 75 0 0.0 0.0 0.00 0.00 0.00 90 1012.5
20260904083004 75 156 0.0 0.0 0.00 0.00 0.00 90 1012.3
20260904081705 75 0 0.0 0.0 0.00 0.00 0.00 90 1012.5
20260904081603 75 156 0.0 0.0 0.00 0.00 0.00 90 1012.3
20260904080805 75 0 0.0 0.0 0.00 0.00 0.00 89 1012.6
20260904080011 75 156 0.0 0.0 0.00 0.00 0.00 89 1012.3
20260904075905 76 0 0.0 0.0 0.00 0.00 0.00 89 1012.6
20260904075004 76 0 0.0 0.0 0.00 0.00 0.00 89 1012.5
20260904074506 75 156 0.0 0.0 0.00 0.00 0.00 89 1012.3
20260904074105 76 0 0.0 0.0 0.00 0.00 0.00 89 1012.5
20260904073204 76 0 0.0 0.0 0.00 0.00 0.00 88 1012.5
20260904073106 75 156 0.0 0.0 0.00 0.00 0.00 88 1012.2
20260904071604 76 156 0.0 0.0 0.00 0.00 0.00 88 1012.2
20260904071404 76 0 0.0 0.0 0.00 0.00 0.00 88 1012.5
20260904070504 76 0 0.0 0.0 0.00 0.00 0.00 88 1012.5
20260904070012 76 156 0.0 0.0 0.00 0.00 0.00 87 1012.3
20260904064704 76 0 0.0 0.0 0.00 0.00 0.00 87 1012.6
20260904064604 76 156 0.0 0.0 0.00 0.00 0.00 87 1012.2
20260904063804 77 0 0.0 0.0 0.00 0.00 0.00 87 1012.5
20260904063105 76 156 0.0 0.0 0.00 0.00 0.00 86 1012.3
20260904062904 77 0 0.0 0.0 0.00 0.00 0.00 86 1012.5
20260904062004 77 0 0.0 0.0 0.00 0.00 0.00 86 1012.6
20260904061603 77 156 0.0 0.0 0.00 0.00 0.00 86 1012.3
20260904061104 77 0 0.0 0.0 0.00 0.00 0.00 85 1012.6
20260904060204 77 0 0.0 0.0 0.00 0.00 0.00 85 1012.5
20260904060004 77 156 0.0 0.0 0.00 0.00 0.00 85 1012.2
20260904055306 78 0 0.0 0.0 0.00 0.00 0.00 85 1012.5
20260904054515 77 156 0.0 0.0 0.00 0.00 0.00 84 1012.2
20260904053504 78 0 0.0 0.0 0.00 0.00 0.00 84 1012.4
20260904053106 78 156 0.0 0.0 0.00 0.00 0.00 84 1012.1
20260904052604 79 0 0.0 0.0 0.00 0.00 0.00 83 1012.4
20260904051705 79 0 0.0 0.0 0.00 0.00 0.00 83 1012.3
20260904051625 78 156 0.0 0.0 0.00 0.00 0.00 83 1012.0
20260904050109 79 156 0.0 0.0 0.00 0.00 0.00 81 1011.9
20260904045904 80 0 0.0 0.0 0.00 0.00 0.00 81 1012.2
20260904045004 80 0 0.0 0.0 0.00 0.00 0.00 80 1012.2
20260904044508 80 156 0.0 0.0 0.00 0.00 0.00 80 1011.9
20260904044105 80 0 0.0 0.0 0.00 0.00 0.00 80 1012.1
20260904043204 81 0 0.0 0.0 0.00 0.00 0.00 79 1012.2
20260904043005 81 156 0.0 0.0 0.00 0.00 0.00 79 1011.9
20260904042306 81 0 0.0 0.0 0.00 0.00 0.00 78 1012.2
20260904041504 81 156 0.0 0.0 0.00 0.00 0.00 77 1011.9
20260904041404 82 0 0.0 0.0 0.00 0.00 0.00 77 1012.1
20260904040504 82 0 0.0 0.0 0.00 0.00 0.00 77 1012.1
20260904040103 82 156 0.0 0.0 0.00 0.00 0.00 76 1011.9
20260904035604 82 0 0.0 0.0 0.00 0.00 0.00 76 1012.2
20260904034705 83 0 0.0 0.0 0.00 0.00 0.00 75 1012.1
20260904034505 82 156 0.0 0.0 0.00 0.00 0.00 75 1011.8
20260904033804 83 0 0.0 0.0 0.00 0.00 0.00 75 1012.1
20260904033105 83 156 0.0 0.0 0.00 0.00 0.00 74 1011.8
20260904032904 84 0 0.0 0.0 0.00 0.00 0.00 73 1012.1
20260904032004 84 156 0.0 1.0 0.00 0.00 0.00 73 1012.1
20260904031508 84 156 0.0 0.0 0.00 0.00 0.00 72 1011.9
20260904031104 85 0 0.0 0.0 0.00 0.00 0.00 72 1012.2
20260904030204 85 156 0.0 1.0 0.00 0.00 0.00 70 1012.3
20260904030109 85 156 0.0 1.0 0.00 0.00 0.00 70 1012.0
20260904024611 85 156 0.0 2.0 0.00 0.00 0.00 70 1011.9
20260904024404 86 155 1.0 2.0 0.00 0.00 0.00 70 1012.2
20260904023504 86 155 1.0 3.0 0.00 0.00 0.00 69 1012.0
20260904023107 85 156 0.0 2.0 0.00 0.00 0.00 69 1011.6
20260904022604 86 156 0.0 1.0 0.00 0.00 0.00 69 1011.9
20260904021704 86 156 0.0 4.0 0.00 0.00 0.00 68 1011.7
20260904021605 86 156 0.0 4.0 0.00 0.00 0.00 67 1011.4
20260904020004 87 156 1.0 4.0 0.00 0.00 0.00 67 1011.2
20260904015904 87 155 2.0 4.0 0.00 0.00 0.00 67 1011.5